Time,TemperatureF,DewpointF,PressureIn,WindDirection,WindDirectionDegrees,WindSpeedMPH,WindSpeedGustMPH,Humidity,HourlyPrecipIn,Conditions,Clouds,dailyrainin,SoftwareType,DateUTC
2013-02-18 00:01:00,28.5,12.2,29.96,SW,234,0.0,15.0,50,0.00,,SKC,0.00,VWS V14.00,2013-02-18 07:01:00,
2013-02-18 00:06:00,28.4,12.6,29.97,WNW,293,5.0,7.0,51,0.00,,SKC,0.00,VWS V14.00,2013-02-18 07:06:00,
2013-02-18 00:11:00,28.2,12.4,29.97,East,91,0.0,7.0,51,0.00,,SKC,0.00,VWS V14.00,2013-02-18 07:11:00,
2013-02-18 00:16:00,28.0,11.8,29.97,NNE,16,2.0,10.0,50,0.00,,SKC,0.00,VWS V14.00,2013-02-18 07:16:00,
2013-02-18 00:22:00,28.0,12.2,29.97,NNW,334,1.0,10.0,51,0.00,,SKC,0.00,VWS V14.00,2013-02-18 07:22:00,
2013-02-18 00:27:00,27.9,11.7,29.97,SW,227,0.0,10.0,50,0.00,,SKC,0.00,VWS V14.00,2013-02-18 07:27:00,
2013-02-18 00:32:00,27.8,10.7,29.98,WNW,284,2.0,10.0,48,0.00,,SKC,0.00,VWS V14.00,2013-02-18 07:32:00,
2013-02-18 00:37:00,27.8,10.7,29.98,NW,305,0.0,9.0,48,0.00,,SKC,0.00,VWS V14.00,2013-02-18 07:37:00,
2013-02-18 00:43:00,27.6,10.5,29.99,WSW,248,0.0,9.0,48,0.00,,SKC,0.00,VWS V14.00,2013-02-18 07:43:00,
2013-02-18 00:48:00,27.5,10.9,29.99,West,277,2.0,9.0,49,0.00,,SKC,0.00,VWS V14.00,2013-02-18 07:48:00,
2013-02-18 00:53:00,27.3,10.7,29.99,WNW,282,2.0,12.0,49,0.00,,SKC,0.00,VWS V14.00,2013-02-18 07:53:00,
2013-02-18 00:58:00,27.2,10.6,29.99,NNE,23,3.0,12.0,49,0.00,,SKC,0.00,VWS V14.00,2013-02-18 07:58:00,
2013-02-18 01:03:00,27.1,10.5,30.00,West,275,0.0,1.0,49,0.00,,SKC,0.00,VWS V14.00,2013-02-18 08:03:00,
2013-02-18 01:09:00,27.0,10.4,30.00,WSW,254,0.0,5.0,49,0.00,,SKC,0.00,VWS V14.00,2013-02-18 08:09:00,
2013-02-18 01:14:00,26.9,10.3,29.99,West,279,0.0,7.0,49,0.00,,SKC,0.00,VWS V14.00,2013-02-18 08:14:00,
2013-02-18 01:19:00,26.8,10.2,30.00,WSW,237,0.0,7.0,49,0.00,,SKC,0.00,VWS V14.00,2013-02-18 08:19:00,
2013-02-18 01:24:00,26.7,10.1,30.00,WSW,238,0.0,7.0,49,0.00,,SKC,0.00,VWS V14.00,2013-02-18 08:24:00,
2013-02-18 01:29:00,26.7,10.6,30.00,WSW,238,0.0,7.0,50,0.00,,SKC,0.00,VWS V14.00,2013-02-18 08:29:00,
2013-02-18 01:35:00,26.5,9.9,30.00,WNW,286,2.0,4.0,49,0.00,,SKC,0.00,VWS V14.00,2013-02-18 08:35:00,
2013-02-18 01:40:00,26.4,10.3,30.01,WSW,257,0.0,5.0,50,0.00,,SKC,0.00,VWS V14.00,2013-02-18 08:40:00,
2013-02-18 01:45:00,26.2,10.1,30.01,SW,230,1.0,5.0,50,0.00,,SKC,0.00,VWS V14.00,2013-02-18 08:45:00,
2013-02-18 01:50:00,26.1,10.0,30.01,WSW,240,0.0,5.0,50,0.00,,SKC,0.00,VWS V14.00,2013-02-18 08:50:00,
2013-02-18 01:55:00,25.8,10.2,30.01,West,273,1.0,5.0,51,0.00,,SKC,0.00,VWS V14.00,2013-02-18 08:55:00,
2013-02-18 02:01:00,25.7,9.6,30.01,SW,232,0.0,7.0,50,0.00,,SKC,0.00,VWS V14.00,2013-02-18 09:01:00,
2013-02-18 02:06:00,25.7,10.1,30.02,SW,232,0.0,2.0,51,0.00,,SKC,0.00,VWS V14.00,2013-02-18 09:06:00,
2013-02-18 02:11:00,25.5,9.9,30.02,West,277,2.0,5.0,51,0.00,,SKC,0.00,VWS V14.00,2013-02-18 09:11:00,
2013-02-18 02:16:00,25.3,10.1,30.02,NW,312,0.0,6.0,52,0.00,,SKC,0.00,VWS V14.00,2013-02-18 09:16:00,
2013-02-18 02:21:00,25.2,10.1,30.02,NW,310,0.0,6.0,52,0.00,,SKC,0.00,VWS V14.00,2013-02-18 09:21:00,
2013-02-18 02:27:00,25.1,10.0,30.02,NW,310,0.0,6.0,52,0.00,,SKC,0.00,VWS V14.00,2013-02-18 09:27:00,
2013-02-18 02:32:00,25.0,10.7,30.02,SSE,155,0.0,6.0,54,0.00,,SKC,0.00,VWS V14.00,2013-02-18 09:32:00,
2013-02-18 02:37:00,24.8,10.9,30.02,East,96,0.0,4.0,55,0.00,,SKC,0.00,VWS V14.00,2013-02-18 09:37:00,
2013-02-18 02:42:00,24.4,11.8,30.03,East,96,4.0,4.0,58,0.00,,SKC,0.00,VWS V14.00,2013-02-18 09:42:00,
2013-02-18 02:48:00,24.0,11.4,30.03,East,96,0.0,4.0,58,0.00,,SKC,0.00,VWS V14.00,2013-02-18 09:48:00,
2013-02-18 02:53:00,23.6,11.0,30.03,East,96,0.0,4.0,58,0.00,,SKC,0.00,VWS V14.00,2013-02-18 09:53:00,
2013-02-18 02:58:00,23.3,11.1,30.03,East,96,0.0,4.0,59,0.00,,SKC,0.00,VWS V14.00,2013-02-18 09:58:00,
2013-02-18 03:03:00,23.0,10.4,30.03,East,96,1.0,1.0,58,0.00,,SKC,0.00,VWS V14.00,2013-02-18 10:03:00,
2013-02-18 03:08:00,22.7,11.6,30.03,East,96,1.0,1.0,62,0.00,,SKC,0.00,VWS V14.00,2013-02-18 10:08:00,
2013-02-18 03:14:00,22.5,11.1,30.04,East,96,1.0,2.0,61,0.00,,SKC,0.00,VWS V14.00,2013-02-18 10:14:00,
2013-02-18 03:19:00,22.6,10.4,30.03,East,96,2.0,2.0,59,0.00,,SKC,0.00,VWS V14.00,2013-02-18 10:19:00,
2013-02-18 03:24:00,22.6,10.4,30.04,East,92,1.0,5.0,59,0.00,,SKC,0.00,VWS V14.00,2013-02-18 10:24:00,
2013-02-18 03:29:00,22.6,10.8,30.05,East,92,0.0,5.0,60,0.00,,SKC,0.00,VWS V14.00,2013-02-18 10:29:00,
2013-02-18 03:35:00,22.4,11.7,30.05,East,92,0.0,1.0,63,0.00,,SKC,0.00,VWS V14.00,2013-02-18 10:35:00,
2013-02-18 03:40:00,21.9,10.9,30.05,East,92,1.0,2.0,62,0.00,,SKC,0.00,VWS V14.00,2013-02-18 10:40:00,
2013-02-18 03:45:00,21.9,11.6,30.05,East,101,0.0,5.0,64,0.00,,SKC,0.00,VWS V14.00,2013-02-18 10:45:00,
2013-02-18 03:50:00,21.6,11.7,30.05,East,101,0.0,5.0,65,0.00,,SKC,0.00,VWS V14.00,2013-02-18 10:50:00,
2013-02-18 03:55:00,21.1,10.8,30.05,ESE,104,0.0,5.0,64,0.00,,SKC,0.00,VWS V14.00,2013-02-18 10:55:00,
2013-02-18 04:00:00,20.9,11.0,30.05,ESE,104,0.0,5.0,65,0.00,,SKC,0.00,VWS V14.00,2013-02-18 11:00:00,
2013-02-18 04:05:00,20.5,11.0,30.05,ESE,104,0.0,0.0,66,0.00,,SKC,0.00,VWS V14.00,2013-02-18 11:05:00,
2013-02-18 04:11:00,20.3,11.1,30.06,ESE,104,0.0,1.0,67,0.00,,SKC,0.00,VWS V14.00,2013-02-18 11:11:00,
2013-02-18 04:17:00,19.5,10.7,30.07,ESE,104,0.0,2.0,68,0.00,,SKC,0.00,VWS V14.00,2013-02-18 11:17:00,
2013-02-18 04:22:00,19.0,10.8,30.06,ESE,104,0.0,2.0,70,0.00,,SKC,0.00,VWS V14.00,2013-02-18 11:22:00,
2013-02-18 04:27:00,18.6,10.5,30.07,ESE,104,0.0,2.0,70,0.00,,SKC,0.00,VWS V14.00,2013-02-18 11:27:00,
2013-02-18 04:32:00,18.4,10.6,30.07,ESE,104,0.0,0.0,71,0.00,,SKC,0.00,VWS V14.00,2013-02-18 11:32:00,
2013-02-18 04:38:00,18.1,10.6,30.08,ESE,104,1.0,1.0,72,0.00,,SKC,0.00,VWS V14.00,2013-02-18 11:38:00,
2013-02-18 04:43:00,17.3,9.5,30.08,ESE,104,1.0,4.0,71,0.00,,SKC,0.00,VWS V14.00,2013-02-18 11:43:00,
2013-02-18 04:48:00,16.9,9.8,30.09,NE,34,0.0,4.0,73,0.00,,SKC,0.00,VWS V14.00,2013-02-18 11:48:00,
2013-02-18 04:53:00,16.9,10.1,30.09,NE,34,0.0,4.0,74,0.00,,SKC,0.00,VWS V14.00,2013-02-18 11:53:00,
2013-02-18 04:59:00,16.9,10.1,30.09,NE,34,0.0,4.0,74,0.00,,SKC,0.00,VWS V14.00,2013-02-18 11:59:00,
2013-02-18 05:04:00,16.9,10.1,30.09,NE,34,0.0,0.0,74,0.00,,SKC,0.00,VWS V14.00,2013-02-18 12:04:00,
2013-02-18 05:09:00,16.7,10.2,30.09,NE,34,0.0,0.0,75,0.00,,SKC,0.00,VWS V14.00,2013-02-18 12:09:00,
2013-02-18 05:14:00,16.4,9.9,30.10,NE,34,2.0,2.0,75,0.00,,SKC,0.00,VWS V14.00,2013-02-18 12:14:00,
2013-02-18 05:19:00,16.1,9.9,30.10,NE,34,0.0,2.0,76,0.00,,SKC,0.00,VWS V14.00,2013-02-18 12:19:00,
2013-02-18 05:25:00,16.1,10.2,30.10,NE,34,0.0,2.0,77,0.00,,SKC,0.00,VWS V14.00,2013-02-18 12:25:00,
2013-02-18 05:30:00,16.3,11.2,30.10,NE,34,0.0,2.0,80,0.00,,SKC,0.00,VWS V14.00,2013-02-18 12:30:00,
2013-02-18 05:35:00,16.4,10.8,30.11,NE,34,0.0,0.0,78,0.00,,SKC,0.00,VWS V14.00,2013-02-18 12:35:00,
2013-02-18 05:40:00,16.4,10.5,30.11,NE,34,0.0,0.0,77,0.00,,SKC,0.00,VWS V14.00,2013-02-18 12:40:00,
2013-02-18 05:46:00,16.3,10.4,30.11,NE,34,0.0,0.0,77,0.00,,SKC,0.00,VWS V14.00,2013-02-18 12:46:00,
2013-02-18 05:51:00,16.3,10.9,30.11,NE,34,0.0,1.0,79,0.00,,SKC,0.00,VWS V14.00,2013-02-18 12:51:00,
2013-02-18 05:56:00,16.5,10.6,30.11,NE,34,0.0,1.0,77,0.00,,SKC,0.00,VWS V14.00,2013-02-18 12:56:00,
2013-02-18 06:01:00,16.4,10.2,30.11,NE,34,0.0,1.0,76,0.00,,SKC,0.00,VWS V14.00,2013-02-18 13:01:00,
2013-02-18 06:06:00,16.3,10.4,30.12,NE,34,0.0,0.0,77,0.00,,SKC,0.00,VWS V14.00,2013-02-18 13:06:00,
2013-02-18 06:12:00,16.1,10.2,30.11,NE,34,0.0,1.0,77,0.00,,SKC,0.00,VWS V14.00,2013-02-18 13:12:00,
2013-02-18 06:17:00,15.9,10.0,30.12,NE,34,0.0,1.0,77,0.00,,SKC,0.00,VWS V14.00,2013-02-18 13:17:00,
2013-02-18 06:22:00,15.8,10.2,30.12,NE,34,0.0,1.0,78,0.00,,SKC,0.00,VWS V14.00,2013-02-18 13:22:00,
2013-02-18 06:27:00,15.8,10.5,30.12,NE,34,0.0,1.0,79,0.00,,SKC,0.00,VWS V14.00,2013-02-18 13:27:00,
2013-02-18 06:33:00,15.8,11.0,30.12,NE,34,0.0,0.0,81,0.00,,SKC,0.00,VWS V14.00,2013-02-18 13:33:00,
2013-02-18 06:38:00,15.7,10.4,30.13,NE,34,0.0,0.0,79,0.00,,SKC,0.00,VWS V14.00,2013-02-18 13:38:00,
2013-02-18 06:43:00,15.6,10.5,30.13,NE,34,0.0,2.0,80,0.00,,SKC,0.00,VWS V14.00,2013-02-18 13:43:00,
2013-02-18 06:48:00,15.5,10.2,30.13,NE,34,1.0,2.0,79,0.00,,SKC,0.00,VWS V14.00,2013-02-18 13:48:00,
2013-02-18 06:54:00,15.4,10.1,30.14,NE,34,0.0,2.0,79,0.00,,SKC,0.00,VWS V14.00,2013-02-18 13:54:00,
2013-02-18 06:59:00,15.4,10.1,30.14,NE,34,0.0,2.0,79,0.00,,SKC,0.00,VWS V14.00,2013-02-18 13:59:00,
2013-02-18 07:04:00,15.3,10.0,30.15,NE,34,1.0,2.0,79,0.00,,SKC,0.00,VWS V14.00,2013-02-18 14:04:00,
2013-02-18 07:09:00,15.0,9.7,30.15,NE,34,0.0,2.0,79,0.00,,SKC,0.00,VWS V14.00,2013-02-18 14:09:00,
2013-02-18 07:15:00,14.9,9.9,30.15,NE,34,0.0,2.0,80,0.00,,SKC,0.00,VWS V14.00,2013-02-18 14:15:00,
2013-02-18 07:20:00,14.8,10.0,30.15,NE,34,0.0,2.0,81,0.00,,SKC,0.00,VWS V14.00,2013-02-18 14:20:00,
2013-02-18 07:25:00,14.9,10.1,30.15,NE,34,0.0,2.0,81,0.00,,SKC,0.00,VWS V14.00,2013-02-18 14:25:00,
2013-02-18 07:30:00,15.3,10.5,30.16,NE,34,0.0,2.0,81,0.00,,SKC,0.00,VWS V14.00,2013-02-18 14:30:00,
2013-02-18 07:36:00,15.5,10.4,30.16,NE,34,0.0,0.0,80,0.00,,SKC,0.00,VWS V14.00,2013-02-18 14:36:00,
2013-02-18 07:41:00,15.8,11.0,30.16,NE,34,0.0,2.0,81,0.00,,SKC,0.00,VWS V14.00,2013-02-18 14:41:00,
2013-02-18 07:47:00,15.8,10.5,30.16,NE,34,0.0,2.0,79,0.00,,SKC,0.00,VWS V14.00,2013-02-18 14:47:00,
2013-02-18 07:52:00,15.8,10.5,30.16,NE,34,0.0,2.0,79,0.00,,SKC,0.00,VWS V14.00,2013-02-18 14:52:00,
2013-02-18 07:57:00,16.1,10.8,30.17,NE,34,0.0,2.0,79,0.00,,SKC,0.00,VWS V14.00,2013-02-18 14:57:00,
2013-02-18 08:02:00,16.2,11.1,30.17,NE,34,0.0,2.0,80,0.00,,SKC,0.00,VWS V14.00,2013-02-18 15:02:00,
2013-02-18 08:07:00,16.4,11.0,30.17,NE,34,0.0,0.0,79,0.00,,SKC,0.00,VWS V14.00,2013-02-18 15:07:00,
2013-02-18 08:12:00,16.8,12.0,30.17,NE,34,0.0,0.0,81,0.00,,SKC,0.00,VWS V14.00,2013-02-18 15:12:00,
2013-02-18 08:18:00,17.5,12.4,30.17,NE,34,0.0,0.0,80,0.00,,SKC,0.00,VWS V14.00,2013-02-18 15:18:00,
2013-02-18 08:23:00,18.0,12.6,30.17,NE,34,0.0,0.0,79,0.00,,SKC,0.00,VWS V14.00,2013-02-18 15:23:00,
2013-02-18 08:28:00,18.6,12.3,30.17,NE,34,0.0,0.0,76,0.00,,SKC,0.00,VWS V14.00,2013-02-18 15:28:00,
2013-02-18 08:33:00,19.2,12.6,30.18,NE,34,0.0,0.0,75,0.00,,SKC,0.00,VWS V14.00,2013-02-18 15:33:00,
2013-02-18 08:39:00,19.8,12.9,30.18,NE,34,0.0,2.0,74,0.00,,SKC,0.00,VWS V14.00,2013-02-18 15:39:00,
2013-02-18 08:44:00,20.2,12.6,30.18,NE,34,0.0,2.0,72,0.00,,SKC,0.00,VWS V14.00,2013-02-18 15:44:00,
2013-02-18 08:49:00,20.7,12.8,30.18,NE,34,0.0,2.0,71,0.00,,SKC,0.00,VWS V14.00,2013-02-18 15:49:00,
2013-02-18 08:55:00,21.2,12.6,30.17,SE,125,0.0,2.0,69,0.00,,SKC,0.00,VWS V14.00,2013-02-18 15:55:00,
2013-02-18 09:00:00,21.7,12.4,30.18,SE,125,0.0,2.0,67,0.00,,SKC,0.00,VWS V14.00,2013-02-18 16:00:00,
2013-02-18 09:05:00,22.0,12.7,30.18,SE,125,0.0,0.0,67,0.00,,SKC,0.00,VWS V14.00,2013-02-18 16:05:00,
2013-02-18 09:10:00,22.3,14.7,30.17,SE,125,0.0,0.0,72,0.00,,SKC,0.00,VWS V14.00,2013-02-18 16:10:00,
2013-02-18 09:16:00,22.5,12.9,30.17,SE,125,0.0,0.0,66,0.00,,SKC,0.00,VWS V14.00,2013-02-18 16:16:00,
2013-02-18 09:21:00,22.6,13.0,30.17,SE,125,0.0,0.0,66,0.00,,SKC,0.00,VWS V14.00,2013-02-18 16:21:00,
2013-02-18 09:26:00,22.9,12.6,30.17,SE,125,0.0,1.0,64,0.00,,SKC,0.00,VWS V14.00,2013-02-18 16:26:00,
2013-02-18 09:31:00,23.1,12.4,30.18,SE,125,0.0,1.0,63,0.00,,SKC,0.00,VWS V14.00,2013-02-18 16:31:00,
2013-02-18 09:37:00,23.5,12.4,30.17,SE,125,0.0,1.0,62,0.00,,SKC,0.00,VWS V14.00,2013-02-18 16:37:00,
2013-02-18 09:42:00,23.9,12.8,30.17,SE,125,0.0,1.0,62,0.00,,SKC,0.00,VWS V14.00,2013-02-18 16:42:00,
2013-02-18 09:47:00,24.2,12.7,30.17,SE,125,1.0,2.0,61,0.00,,SKC,0.00,VWS V14.00,2013-02-18 16:47:00,
2013-02-18 09:53:00,24.5,12.6,30.17,SE,125,0.0,2.0,60,0.00,,SKC,0.00,VWS V14.00,2013-02-18 16:53:00,
2013-02-18 09:58:00,25.1,13.2,30.17,SE,125,2.0,2.0,60,0.00,,SKC,0.00,VWS V14.00,2013-02-18 16:58:00,
2013-02-18 10:03:00,25.8,13.1,30.17,SE,125,0.0,0.0,58,0.00,,SKC,0.00,VWS V14.00,2013-02-18 17:03:00,
2013-02-18 10:08:00,26.6,13.4,30.17,SE,125,0.0,4.0,57,0.00,,SKC,0.00,VWS V14.00,2013-02-18 17:08:00,
2013-02-18 10:14:00,26.8,13.2,30.17,SSE,154,2.0,5.0,56,0.00,,SKC,0.00,VWS V14.00,2013-02-18 17:14:00,
2013-02-18 10:19:00,26.8,13.6,30.17,SSE,154,0.0,5.0,57,0.00,,SKC,0.00,VWS V14.00,2013-02-18 17:19:00,
2013-02-18 10:25:00,26.8,13.6,30.17,SSW,213,0.0,6.0,57,0.00,,SKC,0.00,VWS V14.00,2013-02-18 17:25:00,
2013-02-18 10:30:00,26.9,13.7,30.17,SW,215,1.0,6.0,57,0.00,,SKC,0.00,VWS V14.00,2013-02-18 17:30:00,
2013-02-18 10:35:00,26.9,13.7,30.17,SW,221,3.0,4.0,57,0.00,,SKC,0.00,VWS V14.00,2013-02-18 17:35:00,
2013-02-18 10:41:00,27.5,13.9,30.17,WSW,238,5.0,6.0,56,0.00,,SKC,0.00,VWS V14.00,2013-02-18 17:41:00,
2013-02-18 10:46:00,28.0,14.3,30.17,SSW,204,0.0,6.0,56,0.00,,SKC,0.00,VWS V14.00,2013-02-18 17:46:00,
2013-02-18 10:51:00,28.4,13.9,30.17,SW,221,3.0,6.0,54,0.00,,SKC,0.00,VWS V14.00,2013-02-18 17:51:00,
2013-02-18 10:57:00,28.7,13.8,30.17,South,180,3.0,6.0,53,0.00,,SKC,0.00,VWS V14.00,2013-02-18 17:57:00,
2013-02-18 11:02:00,29.0,13.6,30.17,South,177,0.0,6.0,52,0.00,,SKC,0.00,VWS V14.00,2013-02-18 18:02:00,
2013-02-18 11:07:00,29.4,14.0,30.17,South,182,4.0,7.0,52,0.00,,SKC,0.00,VWS V14.00,2013-02-18 18:07:00,
2013-02-18 11:12:00,29.9,15.3,30.17,South,187,1.0,7.0,54,0.00,,SKC,0.00,VWS V14.00,2013-02-18 18:12:00,
2013-02-18 11:17:00,30.3,13.9,30.17,SW,214,2.0,7.0,50,0.00,,SKC,0.00,VWS V14.00,2013-02-18 18:17:00,
2013-02-18 11:23:00,30.0,13.6,30.17,SSW,198,2.0,7.0,50,0.00,,SKC,0.00,VWS V14.00,2013-02-18 18:23:00,
2013-02-18 11:28:00,30.3,13.9,30.17,South,188,2.0,7.0,50,0.00,,SKC,0.00,VWS V14.00,2013-02-18 18:28:00,
2013-02-18 11:33:00,30.5,13.6,30.17,South,175,2.0,4.0,49,0.00,,SKC,0.00,VWS V14.00,2013-02-18 18:33:00,
2013-02-18 11:39:00,31.0,14.1,30.17,South,188,3.0,5.0,49,0.00,,SKC,0.00,VWS V14.00,2013-02-18 18:39:00,
2013-02-18 11:44:00,31.2,14.7,30.17,South,175,5.0,8.0,50,0.00,,SKC,0.00,VWS V14.00,2013-02-18 18:44:00,
2013-02-18 11:49:00,30.9,13.5,30.17,SSW,197,3.0,8.0,48,0.00,,SKC,0.00,VWS V14.00,2013-02-18 18:49:00,
2013-02-18 11:54:00,30.6,13.3,30.17,SSE,165,0.0,9.0,48,0.00,,SKC,0.00,VWS V14.00,2013-02-18 18:54:00,
2013-02-18 12:00:00,30.3,13.4,30.17,South,187,0.0,9.0,49,0.00,,SKC,0.00,VWS V14.00,2013-02-18 19:00:00,
2013-02-18 12:05:00,30.3,13.4,30.17,SSW,203,2.0,6.0,49,0.00,,SKC,0.00,VWS V14.00,2013-02-18 19:05:00,
2013-02-18 12:10:00,30.1,12.8,30.17,South,181,8.0,10.0,48,0.00,,SKC,0.00,VWS V14.00,2013-02-18 19:10:00,
2013-02-18 12:15:00,29.9,12.6,30.17,South,172,0.0,10.0,48,0.00,,SKC,0.00,VWS V14.00,2013-02-18 19:15:00,
2013-02-18 12:20:00,29.9,13.1,30.16,SSW,193,0.0,10.0,49,0.00,,SKC,0.00,VWS V14.00,2013-02-18 19:20:00,
2013-02-18 12:26:00,30.3,13.4,30.16,South,169,0.0,10.0,49,0.00,,SKC,0.00,VWS V14.00,2013-02-18 19:26:00,
2013-02-18 12:31:00,30.5,13.2,30.16,East,79,3.0,10.0,48,0.00,,SKC,0.00,VWS V14.00,2013-02-18 19:31:00,
2013-02-18 12:36:00,30.3,13.0,30.16,NE,37,0.0,3.0,48,0.00,,SKC,0.00,VWS V14.00,2013-02-18 19:36:00,
2013-02-18 12:42:00,30.6,13.3,30.16,WNW,294,0.0,4.0,48,0.00,,SKC,0.00,VWS V14.00,2013-02-18 19:42:00,
2013-02-18 12:47:00,30.7,12.9,30.16,North,5,0.0,4.0,47,0.00,,SKC,0.00,VWS V14.00,2013-02-18 19:47:00,
2013-02-18 12:52:00,30.7,12.4,30.15,NNE,19,0.0,4.0,46,0.00,,SKC,0.00,VWS V14.00,2013-02-18 19:52:00,
2013-02-18 12:57:00,30.9,13.1,30.15,SSE,150,0.0,6.0,47,0.00,,SKC,0.00,VWS V14.00,2013-02-18 19:57:00,
2013-02-18 13:03:00,31.1,11.8,30.15,NE,50,2.0,4.0,44,0.00,,SKC,0.00,VWS V14.00,2013-02-18 20:03:00,
2013-02-18 13:08:00,31.2,12.4,30.15,SE,128,0.0,7.0,45,0.00,,SKC,0.00,VWS V14.00,2013-02-18 20:08:00,
2013-02-18 13:13:00,31.5,11.6,30.15,SSE,153,1.0,7.0,43,0.00,,SKC,0.00,VWS V14.00,2013-02-18 20:13:00,
2013-02-18 13:18:00,31.7,11.8,30.15,SW,218,3.0,7.0,43,0.00,,SKC,0.00,VWS V14.00,2013-02-18 20:18:00,
2013-02-18 13:24:00,31.9,12.0,30.15,South,186,4.0,10.0,43,0.00,,SKC,0.00,VWS V14.00,2013-02-18 20:24:00,
2013-02-18 13:29:00,31.9,12.0,30.14,SSW,199,4.0,10.0,43,0.00,,SKC,0.00,VWS V14.00,2013-02-18 20:29:00,
2013-02-18 13:35:00,32.0,12.1,30.14,South,176,2.0,5.0,43,0.00,,SKC,0.00,VWS V14.00,2013-02-18 20:35:00,
2013-02-18 13:40:00,32.7,12.2,30.15,SSW,205,0.0,6.0,42,0.00,,SKC,0.00,VWS V14.00,2013-02-18 20:40:00,
2013-02-18 13:45:00,33.3,11.6,30.15,South,185,5.0,8.0,40,0.00,,SKC,0.00,VWS V14.00,2013-02-18 20:45:00,
2013-02-18 13:51:00,33.1,12.0,30.15,SW,221,0.0,8.0,41,0.00,,SKC,0.00,VWS V14.00,2013-02-18 20:51:00,
2013-02-18 13:56:00,33.0,11.3,30.15,SSW,196,3.0,8.0,40,0.00,,SKC,0.00,VWS V14.00,2013-02-18 20:56:00,
2013-02-18 14:01:00,33.0,11.9,30.15,SSW,202,2.0,8.0,41,0.00,,SKC,0.00,VWS V14.00,2013-02-18 21:01:00,
2013-02-18 14:07:00,32.8,10.6,30.15,ESE,119,1.0,4.0,39,0.00,,SKC,0.00,VWS V14.00,2013-02-18 21:07:00,
2013-02-18 14:12:00,32.8,11.1,30.15,ESE,119,0.0,4.0,40,0.00,,SKC,0.00,VWS V14.00,2013-02-18 21:12:00,
2013-02-18 14:17:00,32.9,10.7,30.15,NNE,20,0.0,4.0,39,0.00,,SKC,0.00,VWS V14.00,2013-02-18 21:17:00,
2013-02-18 14:23:00,33.0,11.3,30.15,SSE,166,0.0,6.0,40,0.00,,SKC,0.00,VWS V14.00,2013-02-18 21:23:00,
2013-02-18 14:28:00,33.5,10.6,30.15,SSW,194,0.0,6.0,38,0.00,,SKC,0.00,VWS V14.00,2013-02-18 21:28:00,
2013-02-18 14:33:00,33.6,11.3,30.15,ENE,69,3.0,3.0,39,0.00,,SKC,0.00,VWS V14.00,2013-02-18 21:33:00,
2013-02-18 14:38:00,33.9,11.0,30.14,SSE,161,1.0,8.0,38,0.00,,SKC,0.00,VWS V14.00,2013-02-18 21:38:00,
2013-02-18 14:44:00,34.2,11.3,30.14,West,267,0.0,8.0,38,0.00,,SKC,0.00,VWS V14.00,2013-02-18 21:44:00,
2013-02-18 14:49:00,34.7,10.5,30.15,SE,141,8.0,10.0,36,0.00,,SKC,0.00,VWS V14.00,2013-02-18 21:49:00,
2013-02-18 14:55:00,34.4,10.2,30.15,South,173,8.0,17.0,36,0.00,,SKC,0.00,VWS V14.00,2013-02-18 21:55:00,
2013-02-18 15:00:00,34.7,11.7,30.15,South,184,6.0,17.0,38,0.00,,SKC,0.00,VWS V14.00,2013-02-18 22:00:00,
2013-02-18 15:05:00,35.2,11.6,30.15,SSW,196,5.0,7.0,37,0.00,,SKC,0.00,VWS V14.00,2013-02-18 22:05:00,
2013-02-18 15:10:00,35.2,9.7,30.15,SSE,163,6.0,13.0,34,0.00,,SKC,0.00,VWS V14.00,2013-02-18 22:10:00,
2013-02-18 15:16:00,34.9,10.0,30.15,SSW,193,0.0,13.0,35,0.00,,SKC,0.00,VWS V14.00,2013-02-18 22:16:00,
2013-02-18 15:21:00,35.4,11.1,30.16,South,180,6.0,13.0,36,0.00,,SKC,0.00,VWS V14.00,2013-02-18 22:21:00,
2013-02-18 15:26:00,35.6,10.7,30.16,South,191,5.0,13.0,35,0.00,,SKC,0.00,VWS V14.00,2013-02-18 22:26:00,
2013-02-18 15:32:00,35.4,9.8,30.16,South,180,1.0,13.0,34,0.00,,SKC,0.00,VWS V14.00,2013-02-18 22:32:00,
2013-02-18 15:37:00,35.5,11.2,30.16,South,174,5.0,9.0,36,0.00,,SKC,0.00,VWS V14.00,2013-02-18 22:37:00,
2013-02-18 15:42:00,35.7,11.4,30.16,SSW,200,1.0,9.0,36,0.00,,SKC,0.00,VWS V14.00,2013-02-18 22:42:00,
2013-02-18 15:48:00,35.7,10.8,30.16,SW,216,3.0,9.0,35,0.00,,SKC,0.00,VWS V14.00,2013-02-18 22:48:00,
2013-02-18 15:53:00,35.5,10.6,30.17,SSW,213,4.0,9.0,35,0.00,,SKC,0.00,VWS V14.00,2013-02-18 22:53:00,
2013-02-18 15:58:00,35.9,11.6,30.17,SSW,201,1.0,9.0,36,0.00,,SKC,0.00,VWS V14.00,2013-02-18 22:58:00,
2013-02-18 16:04:00,36.1,10.5,30.17,South,183,4.0,5.0,34,0.00,,SKC,0.00,VWS V14.00,2013-02-18 23:04:00,
2013-02-18 16:09:00,35.7,10.8,30.17,SW,214,4.0,5.0,35,0.00,,SKC,0.00,VWS V14.00,2013-02-18 23:09:00,
2013-02-18 16:14:00,35.7,10.8,30.17,SSW,196,1.0,6.0,35,0.00,,SKC,0.00,VWS V14.00,2013-02-18 23:14:00,
2013-02-18 16:19:00,35.6,10.0,30.17,South,181,0.0,7.0,34,0.00,,SKC,0.00,VWS V14.00,2013-02-18 23:19:00,
2013-02-18 16:25:00,36.1,9.8,30.17,South,181,0.0,7.0,33,0.00,,SKC,0.00,VWS V14.00,2013-02-18 23:25:00,
2013-02-18 16:30:00,36.6,10.2,30.17,ENE,70,1.0,7.0,33,0.00,,SKC,0.00,VWS V14.00,2013-02-18 23:30:00,
2013-02-18 16:36:00,36.7,10.3,30.17,SW,223,1.0,3.0,33,0.00,,SKC,0.00,VWS V14.00,2013-02-18 23:36:00,
2013-02-18 16:41:00,36.6,10.2,30.17,SW,223,0.0,3.0,33,0.00,,SKC,0.00,VWS V14.00,2013-02-18 23:41:00,
2013-02-18 16:46:00,36.5,10.8,30.18,SW,223,0.0,3.0,34,0.00,,SKC,0.00,VWS V14.00,2013-02-18 23:46:00,
2013-02-18 16:51:00,36.0,10.4,30.18,SW,223,0.0,3.0,34,0.00,,SKC,0.00,VWS V14.00,2013-02-18 23:51:00,
2013-02-18 16:56:00,35.5,11.2,30.18,ESE,117,0.0,3.0,36,0.00,,SKC,0.00,VWS V14.00,2013-02-18 23:56:00,
2013-02-18 17:02:00,35.3,12.8,30.18,ESE,117,0.0,3.0,39,0.00,,SKC,0.00,VWS V14.00,2013-02-19 00:02:00,
2013-02-18 17:07:00,34.7,12.9,30.18,ESE,117,0.0,0.0,40,0.00,,SKC,0.00,VWS V14.00,2013-02-19 00:07:00,
2013-02-18 17:12:00,33.7,13.1,30.18,ESE,117,1.0,2.0,42,0.00,,SKC,0.00,VWS V14.00,2013-02-19 00:12:00,
2013-02-18 17:17:00,32.3,13.4,30.18,ESE,117,0.0,2.0,45,0.00,,SKC,0.00,VWS V14.00,2013-02-19 00:17:00,
2013-02-18 17:23:00,31.1,13.7,30.18,ESE,117,0.0,2.0,48,0.00,,SKC,0.00,VWS V14.00,2013-02-19 00:23:00,
2013-02-18 17:28:00,30.0,12.2,30.19,ESE,117,0.0,2.0,47,0.00,,SKC,0.00,VWS V14.00,2013-02-19 00:28:00,
2013-02-18 17:33:00,29.7,11.9,30.19,ESE,117,0.0,1.0,47,0.00,,SKC,0.00,VWS V14.00,2013-02-19 00:33:00,
2013-02-18 17:39:00,29.1,13.7,30.19,ESE,117,1.0,2.0,52,0.00,,SKC,0.00,VWS V14.00,2013-02-19 00:39:00,
2013-02-18 17:44:00,28.4,14.7,30.19,ESE,117,0.0,2.0,56,0.00,,SKC,0.00,VWS V14.00,2013-02-19 00:44:00,
2013-02-18 17:49:00,27.7,14.1,30.19,ESE,116,1.0,2.0,56,0.00,,SKC,0.00,VWS V14.00,2013-02-19 00:49:00,
2013-02-18 17:55:00,27.4,13.4,30.19,ESE,116,0.0,2.0,55,0.00,,SKC,0.00,VWS V14.00,2013-02-19 00:55:00,
2013-02-18 18:00:00,27.2,13.2,30.19,ESE,116,0.0,2.0,55,0.00,,SKC,0.00,VWS V14.00,2013-02-19 01:00:00,
2013-02-18 18:05:00,27.0,13.8,30.19,ESE,116,0.0,1.0,57,0.00,,SKC,0.00,VWS V14.00,2013-02-19 01:05:00,
2013-02-18 18:10:00,26.7,13.9,30.19,ESE,116,0.0,1.0,58,0.00,,SKC,0.00,VWS V14.00,2013-02-19 01:10:00,
2013-02-18 18:16:00,26.2,14.6,30.19,ESE,116,0.0,1.0,61,0.00,,SKC,0.00,VWS V14.00,2013-02-19 01:16:00,
2013-02-18 18:21:00,25.9,13.6,30.19,ESE,116,2.0,2.0,59,0.00,,SKC,0.00,VWS V14.00,2013-02-19 01:21:00,
2013-02-18 18:26:00,25.7,14.1,30.20,ESE,110,0.0,4.0,61,0.00,,SKC,0.00,VWS V14.00,2013-02-19 01:26:00,
2013-02-18 18:32:00,25.4,14.2,30.20,ESE,110,0.0,4.0,62,0.00,,SKC,0.00,VWS V14.00,2013-02-19 01:32:00,
2013-02-18 18:37:00,25.2,13.6,30.20,ESE,110,0.0,1.0,61,0.00,,SKC,0.00,VWS V14.00,2013-02-19 01:37:00,
2013-02-18 18:42:00,25.0,14.2,30.20,ESE,110,0.0,1.0,63,0.00,,SKC,0.00,VWS V14.00,2013-02-19 01:42:00,
2013-02-18 18:48:00,24.8,14.0,30.21,ESE,110,0.0,1.0,63,0.00,,SKC,0.00,VWS V14.00,2013-02-19 01:48:00,
2013-02-18 18:53:00,24.4,13.6,30.21,ESE,110,0.0,2.0,63,0.00,,SKC,0.00,VWS V14.00,2013-02-19 01:53:00,
2013-02-18 18:58:00,23.9,13.1,30.21,ESE,110,0.0,2.0,63,0.00,,SKC,0.00,VWS V14.00,2013-02-19 01:58:00,
2013-02-18 19:04:00,23.8,13.4,30.21,ESE,110,1.0,2.0,64,0.00,,SKC,0.00,VWS V14.00,2013-02-19 02:04:00,
2013-02-18 19:09:00,23.6,13.9,30.22,ESE,110,0.0,4.0,66,0.00,,SKC,0.00,VWS V14.00,2013-02-19 02:09:00,
2013-02-18 19:14:00,23.1,13.8,30.23,ESE,110,0.0,4.0,67,0.00,,SKC,0.00,VWS V14.00,2013-02-19 02:14:00,
2013-02-18 19:19:00,22.7,13.7,30.23,ESE,110,0.0,4.0,68,0.00,,SKC,0.00,VWS V14.00,2013-02-19 02:19:00,
2013-02-18 19:25:00,22.5,13.2,30.23,ESE,109,0.0,4.0,67,0.00,,SKC,0.00,VWS V14.00,2013-02-19 02:25:00,
2013-02-18 19:30:00,22.3,13.4,30.24,ESE,109,0.0,4.0,68,0.00,,SKC,0.00,VWS V14.00,2013-02-19 02:30:00,
2013-02-18 19:36:00,22.1,12.8,30.23,ESE,109,0.0,1.0,67,0.00,,SKC,0.00,VWS V14.00,2013-02-19 02:36:00,
2013-02-18 19:41:00,22.0,13.1,30.23,ESE,109,0.0,1.0,68,0.00,,SKC,0.00,VWS V14.00,2013-02-19 02:41:00,
2013-02-18 19:46:00,21.7,13.1,30.24,ESE,109,0.0,1.0,69,0.00,,SKC,0.00,VWS V14.00,2013-02-19 02:46:00,
2013-02-18 19:51:00,21.9,11.6,30.23,NNE,15,1.0,7.0,64,0.00,,SKC,0.00,VWS V14.00,2013-02-19 02:51:00,
2013-02-18 19:57:00,22.4,11.7,30.23,NE,55,0.0,7.0,63,0.00,,SKC,0.00,VWS V14.00,2013-02-19 02:57:00,
2013-02-18 20:02:00,22.4,12.4,30.23,NNW,338,0.0,7.0,65,0.00,,SKC,0.00,VWS V14.00,2013-02-19 03:02:00,
2013-02-18 20:07:00,22.2,12.2,30.24,NNW,338,0.0,0.0,65,0.00,,SKC,0.00,VWS V14.00,2013-02-19 03:07:00,
2013-02-18 20:12:00,22.3,12.0,30.24,ENE,64,0.0,2.0,64,0.00,,SKC,0.00,VWS V14.00,2013-02-19 03:12:00,
2013-02-18 20:17:00,22.6,11.9,30.24,ENE,64,0.0,2.0,63,0.00,,SKC,0.00,VWS V14.00,2013-02-19 03:17:00,
2013-02-18 20:23:00,22.6,10.4,30.24,ENE,64,0.0,2.0,59,0.00,,SKC,0.00,VWS V14.00,2013-02-19 03:23:00,
2013-02-18 20:28:00,22.9,10.3,30.24,East,98,0.0,5.0,58,0.00,,SKC,0.00,VWS V14.00,2013-02-19 03:28:00,
2013-02-18 20:34:00,23.3,9.9,30.25,NE,42,0.0,5.0,56,0.00,,SKC,0.00,VWS V14.00,2013-02-19 03:34:00,
2013-02-18 20:39:00,23.7,9.9,30.25,NE,41,0.0,5.0,55,0.00,,SKC,0.00,VWS V14.00,2013-02-19 03:39:00,
2013-02-18 20:45:00,23.9,9.7,30.25,NNE,22,1.0,5.0,54,0.00,,SKC,0.00,VWS V14.00,2013-02-19 03:45:00,
2013-02-18 20:50:00,24.0,9.4,30.25,NE,54,3.0,5.0,53,0.00,,SKC,0.00,VWS V14.00,2013-02-19 03:50:00,
2013-02-18 20:55:00,23.9,9.7,30.25,NNE,33,0.0,5.0,54,0.00,,SKC,0.00,VWS V14.00,2013-02-19 03:55:00,
2013-02-18 21:00:00,23.6,10.2,30.26,ENE,67,1.0,5.0,56,0.00,,SKC,0.00,VWS V14.00,2013-02-19 04:00:00,
2013-02-18 21:05:00,23.3,9.9,30.25,NE,47,2.0,5.0,56,0.00,,SKC,0.00,VWS V14.00,2013-02-19 04:05:00,
2013-02-18 21:11:00,23.1,8.9,30.26,North,360,4.0,5.0,54,0.00,,SKC,0.00,VWS V14.00,2013-02-19 04:11:00,
2013-02-18 21:16:00,23.2,9.8,30.26,ENE,67,0.0,5.0,56,0.00,,SKC,0.00,VWS V14.00,2013-02-19 04:16:00,
2013-02-18 21:21:00,22.7,9.8,30.26,ENE,67,2.0,5.0,57,0.00,,SKC,0.00,VWS V14.00,2013-02-19 04:21:00,
2013-02-18 21:27:00,22.1,9.6,30.26,ENE,73,1.0,5.0,58,0.00,,SKC,0.00,VWS V14.00,2013-02-19 04:27:00,
2013-02-18 21:32:00,21.7,9.2,30.26,NE,49,3.0,5.0,58,0.00,,SKC,0.00,VWS V14.00,2013-02-19 04:32:00,
2013-02-18 21:37:00,21.7,8.8,30.26,NE,46,3.0,5.0,57,0.00,,SKC,0.00,VWS V14.00,2013-02-19 04:37:00,
2013-02-18 21:43:00,21.9,9.4,30.26,ENE,71,1.0,5.0,58,0.00,,SKC,0.00,VWS V14.00,2013-02-19 04:43:00,
2013-02-18 21:48:00,21.6,8.7,30.26,ENE,65,4.0,6.0,57,0.00,,SKC,0.00,VWS V14.00,2013-02-19 04:48:00,
2013-02-18 21:54:00,21.4,8.9,30.25,NNE,24,4.0,6.0,58,0.00,,SKC,0.00,VWS V14.00,2013-02-19 04:54:00,
2013-02-18 21:59:00,22.0,8.3,30.25,NNE,16,6.0,6.0,55,0.00,,SKC,0.00,VWS V14.00,2013-02-19 04:59:00,
2013-02-18 22:00:00,22.0,8.3,30.25,NNE,28,1.0,6.0,55,0.00,,SKC,0.00,VWS V14.00,2013-02-19 05:00:00,
2013-02-18 22:01:00,22.2,8.1,30.24,NNE,32,3.0,6.0,54,0.00,,SKC,0.00,VWS V14.00,2013-02-19 05:01:00,
2013-02-18 22:02:00,22.3,8.6,30.25,NNE,19,1.0,1.0,55,0.00,,SKC,0.00,VWS V14.00,2013-02-19 05:02:00,
2013-02-18 22:07:00,22.5,8.8,30.25,NNE,32,1.0,7.0,55,0.00,,SKC,0.00,VWS V14.00,2013-02-19 05:07:00,
2013-02-18 22:13:00,22.7,9.0,30.25,NE,55,3.0,7.0,55,0.00,,SKC,0.00,VWS V14.00,2013-02-19 05:13:00,
2013-02-18 22:18:00,22.2,9.3,30.25,ENE,62,0.0,7.0,57,0.00,,SKC,0.00,VWS V14.00,2013-02-19 05:18:00,
2013-02-18 22:23:00,21.9,9.0,30.24,ENE,67,2.0,7.0,57,0.00,,SKC,0.00,VWS V14.00,2013-02-19 05:23:00,
2013-02-18 22:29:00,21.9,9.0,30.24,NE,50,1.0,7.0,57,0.00,,SKC,0.00,VWS V14.00,2013-02-19 05:29:00,
2013-02-18 22:34:00,21.5,9.4,30.24,NE,55,0.0,0.0,59,0.00,,SKC,0.00,VWS V14.00,2013-02-19 05:34:00,
2013-02-18 22:39:00,21.1,9.0,30.24,NE,55,0.0,0.0,59,0.00,,SKC,0.00,VWS V14.00,2013-02-19 05:39:00,
2013-02-18 22:44:00,20.7,9.0,30.25,NE,55,0.0,0.0,60,0.00,,SKC,0.00,VWS V14.00,2013-02-19 05:44:00,
2013-02-18 22:49:00,20.4,9.5,30.25,NE,55,0.0,2.0,62,0.00,,SKC,0.00,VWS V14.00,2013-02-19 05:49:00,
2013-02-18 22:55:00,19.8,8.9,30.25,NE,55,0.0,2.0,62,0.00,,SKC,0.00,VWS V14.00,2013-02-19 05:55:00,
2013-02-18 23:00:00,19.4,8.5,30.25,NE,55,2.0,2.0,62,0.00,,SKC,0.00,VWS V14.00,2013-02-19 06:00:00,
2013-02-18 23:05:00,19.1,9.3,30.26,NE,55,0.0,1.0,65,0.00,,SKC,0.00,VWS V14.00,2013-02-19 06:05:00,
2013-02-18 23:10:00,18.8,9.0,30.26,NE,55,0.0,1.0,65,0.00,,SKC,0.00,VWS V14.00,2013-02-19 06:10:00,
2013-02-18 23:16:00,18.5,9.1,30.26,NE,55,1.0,2.0,66,0.00,,SKC,0.00,VWS V14.00,2013-02-19 06:16:00,
2013-02-18 23:21:00,18.2,8.8,30.26,NE,55,0.0,2.0,66,0.00,,SKC,0.00,VWS V14.00,2013-02-19 06:21:00,
2013-02-18 23:26:00,18.0,8.6,30.25,NE,55,0.0,2.0,66,0.00,,SKC,0.00,VWS V14.00,2013-02-19 06:26:00,
2013-02-18 23:31:00,17.9,9.1,30.25,NE,55,0.0,2.0,68,0.00,,SKC,0.00,VWS V14.00,2013-02-19 06:31:00,
2013-02-18 23:37:00,17.7,8.9,30.25,NE,55,0.0,0.0,68,0.00,,SKC,0.00,VWS V14.00,2013-02-19 06:37:00,
2013-02-18 23:42:00,17.6,9.2,30.24,NE,55,1.0,2.0,69,0.00,,SKC,0.00,VWS V14.00,2013-02-19 06:42:00,
2013-02-18 23:47:00,17.8,8.7,30.24,NNE,21,0.0,5.0,67,0.00,,SKC,0.00,VWS V14.00,2013-02-19 06:47:00,
2013-02-18 23:52:00,18.0,8.9,30.24,NNE,21,0.0,5.0,67,0.00,,SKC,0.00,VWS V14.00,2013-02-19 06:52:00,
2013-02-18 23:58:00,17.9,8.8,30.24,NNE,21,0.0,5.0,67,0.00,,SKC,0.00,VWS V14.00,2013-02-19 06:58:00,